Weather History for KSRQ - September, 2011

Change the Weather History Date:

Wednesday, September 7, 2011

  Actual Average Record
Temperature  
Mean Temperature 80 °F 82 °F  
Max Temperature 86 °F 89 °F 98 °F (1970)
Min Temperature 73 °F 75 °F 61 °F (1960)
Degree Days  
Heating Degree Days 0 0  
Month to date heating degree days 0 0  
Since 1 July heating degree days 0 0  
Cooling Degree Days 15 17  
Month to date cooling degree days 122 119  
Year to date cooling degree days 2637 2416  
Growing Degree Days 28 (Base 50)    
Moisture  
Dew Point 74 °F    
Average Humidity 88    
Maximum Humidity 93    
Minimum Humidity 70    
Precipitation  
Precipitation 2.68 in 0.29 in 5.84 in (1988)
Month to date precipitation 3.28 2.32  
Year to date precipitation 34.95 40.65  
Sea Level Pressure  
Sea Level Pressure 29.91 in    
Wind  
Wind Speed 6 mph (East)    
Max Wind Speed 24 mph    
Max Gust Speed 33 mph    
Visibility 8 miles    
Events Fog , Rain    
T = Trace of Precipitation, MM = Missing Value Source: NWS Daily Summary

Daily Weather History Graph

Daily Weather History Graph

Search for Another Location

Airport or City:

Trip Planner

Search our weather history database for the weather conditions in past years. The results will help you decide how hot, cold, wet, or windy it might be!

Date:

Astronomy

Sep. 07, 2011 Rise Set
Actual Time 7:11 AM EDT 7:44 PM EDT
Civil Twilight 6:48 AM EDT 8:07 PM EDT
Nautical Twilight 6:20 AM EDT 8:35 PM EDT
Astronomical Twilight 5:52 AM EDT 9:03 PM EDT
Moon 4:43 PM EDT (9/7) 2:48 AM EDT (9/7)
Length of Visible Light 13h 19m
Length of Day
12h 32m
Waxing Gibbous, 79% of the Moon is Illuminated
Sep 7
Waxing Gibbous
Sep 12
Full
Sep 20
Last Quarter
Sep 27
New
Oct 3
First Quarter

Hourly Weather History & Observations

Time (EDT) Temp. Heat Index Dew Point Humidity Pressure Visibility Wind Dir Wind Speed Gust Speed Precip Events Conditions
12:53 AM 79.0 °F - 75.9 °F 90% 29.91 in 10.0 mi Calm Calm - N/A   Mostly Cloudy
1:53 AM 79.0 °F - 75.0 °F 88% 29.91 in 10.0 mi SE 13.8 mph - N/A   Mostly Cloudy
2:49 AM 77.0 °F - 73.4 °F 89% 29.94 in 1.5 mi SW 23.0 mph 33.4 mph 0.01 in Rain Light Rain
2:51 AM 75.2 °F - 73.4 °F 94% 29.94 in 0.8 mi SW 23.0 mph 33.4 mph 0.01 in Rain Heavy Rain
2:53 AM 75.2 °F - 73.4 °F 94% 29.92 in 0.5 mi SW 11.5 mph 33.4 mph N/A Fog , Rain Heavy Rain
3:02 AM 75.2 °F - 73.4 °F 94% 29.91 in 0.8 mi West 8.1 mph - 0.00 in Rain Heavy Rain
3:06 AM 75.2 °F - 73.4 °F 94% 29.92 in 1.0 mi NW 16.1 mph 29.9 mph N/A Rain Heavy Rain
3:13 AM 75.2 °F - 71.6 °F 89% 29.91 in 1.0 mi West 19.6 mph 29.9 mph N/A Rain Heavy Rain
3:23 AM 73.4 °F - 71.6 °F 94% 29.89 in 0.8 mi WNW 10.4 mph 25.3 mph N/A Rain Heavy Rain
3:29 AM 73.4 °F - 71.6 °F 94% 29.89 in 2.0 mi SSW 3.5 mph - N/A Rain Light Rain
3:36 AM 73.4 °F - 71.6 °F 94% 29.90 in 10.0 mi NW 8.1 mph - N/A Rain Light Rain
3:43 AM 75.2 °F - 71.6 °F 89% 29.91 in 10.0 mi NNE 8.1 mph - N/A   Overcast
3:53 AM 75.0 °F - 72.0 °F 90% 29.90 in 6.0 mi North 8.1 mph - N/A Rain Light Rain
4:35 AM 75.2 °F - 73.4 °F 94% 29.89 in 7.0 mi NNE 5.8 mph - N/A Rain Light Rain
4:43 AM 75.2 °F - 73.4 °F 94% 29.89 in 10.0 mi ENE 5.8 mph - N/A   Mostly Cloudy
4:53 AM 75.0 °F - 73.0 °F 94% 29.89 in 10.0 mi NE 4.6 mph - N/A Rain Light Rain
5:09 AM 75.2 °F - 73.4 °F 94% 29.89 in 10.0 mi Calm Calm - N/A   Mostly Cloudy
5:25 AM 75.2 °F - 73.4 °F 94% 29.89 in 10.0 mi NE 5.8 mph - N/A   Scattered Clouds
5:53 AM 75.0 °F - 73.0 °F 94% 29.89 in 10.0 mi NE 6.9 mph - N/A   Clear
6:08 AM 73.4 °F - 73.4 °F 100% 29.89 in 10.0 mi NNE 3.5 mph - N/A   Scattered Clouds
6:17 AM 73.4 °F - 73.4 °F 100% 29.89 in 10.0 mi NE 4.6 mph - N/A   Mostly Cloudy
6:39 AM 73.4 °F - 73.4 °F 100% 29.89 in 10.0 mi NE 5.8 mph - N/A   Scattered Clouds
6:53 AM 73.9 °F - 72.0 °F 93% 29.90 in 10.0 mi Calm Calm - N/A   Clear
7:53 AM 73.9 °F - 72.0 °F 93% 29.90 in 10.0 mi ENE 3.5 mph - N/A   Clear
8:53 AM 77.0 °F - 73.9 °F 90% 29.92 in 10.0 mi ENE 6.9 mph - N/A   Clear
9:17 AM 77.0 °F - 73.4 °F 89% 29.93 in 10.0 mi East 9.2 mph - N/A   Partly Cloudy
9:53 AM 79.0 °F - 73.0 °F 82% 29.94 in 10.0 mi East 9.2 mph - N/A   Partly Cloudy
10:53 AM 82.0 °F 87.4 °F 73.0 °F 74% 29.94 in 10.0 mi ESE 5.8 mph - 0.01 in   Scattered Clouds
11:39 AM 84.2 °F 92.3 °F 75.2 °F 74% 29.94 in 10.0 mi East 5.8 mph - 2.44 in   Mostly Cloudy
11:53 AM 84.9 °F 93.3 °F 75.0 °F 72% 29.94 in 10.0 mi SSE 4.6 mph - 2.44 in   Scattered Clouds
12:53 PM 84.9 °F 92.1 °F 73.9 °F 69% 29.94 in 10.0 mi Calm Calm - N/A   Mostly Cloudy
1:14 PM 84.2 °F 90.9 °F 73.4 °F 70% 29.93 in 10.0 mi WSW 4.6 mph - N/A   Mostly Cloudy
1:21 PM 84.2 °F 90.9 °F 73.4 °F 70% 29.93 in 10.0 mi West 4.6 mph - N/A   Mostly Cloudy
1:39 PM 82.4 °F 89.5 °F 75.2 °F 79% 29.93 in 10.0 mi West 5.8 mph - 0.00 in Rain Light Rain
1:53 PM 82.4 °F 89.5 °F 75.2 °F 79% 29.93 in 6.0 mi West 3.5 mph - N/A Rain Rain
2:25 PM 80.6 °F 87.1 °F 77.0 °F 89% 29.92 in 8.0 mi WNW 8.1 mph - 0.02 in Rain Light Rain
2:53 PM 80.1 °F 85.4 °F 75.9 °F 87% 29.92 in 10.0 mi WNW 8.1 mph - 0.02 in Rain Light Rain
3:08 PM 80.6 °F 86.2 °F 75.2 °F 84% 29.92 in 8.0 mi West 6.9 mph - 0.02 in Rain Light Rain
3:22 PM 80.6 °F 86.2 °F 75.2 °F 84% 29.91 in 10.0 mi WSW 5.8 mph - 0.03 in Rain Light Rain
3:53 PM 79.0 °F - 75.0 °F 88% 29.91 in 8.0 mi SW 12.7 mph - 0.05 in Rain Light Rain
4:53 PM 78.1 °F - 73.9 °F 87% 29.90 in 5.0 mi SSW 6.9 mph - 0.11 in Rain Light Rain
5:11 PM 78.8 °F - 75.2 °F 89% 29.90 in 10.0 mi South 4.6 mph - 0.00 in Rain Light Rain
5:53 PM 80.1 °F 84.5 °F 73.9 °F 81% 29.89 in 10.0 mi SSW 4.6 mph - 0.00 in   Clear
6:53 PM 80.1 °F 84.2 °F 73.0 °F 79% 29.90 in 10.0 mi Calm Calm - N/A   Clear
7:53 PM 79.0 °F - 75.0 °F 88% 29.91 in 10.0 mi Calm Calm - 0.00 in   Clear
8:29 PM 78.8 °F - 75.2 °F 89% 29.93 in 10.0 mi East 4.6 mph - N/A   Mostly Cloudy
8:53 PM 78.1 °F - 75.9 °F 93% 29.93 in 10.0 mi East 5.8 mph - N/A   Overcast
9:01 PM 78.8 °F - 75.2 °F 89% 29.93 in 10.0 mi East 4.6 mph - N/A   Mostly Cloudy
9:42 PM 78.8 °F - 75.2 °F 89% 29.93 in 10.0 mi ENE 5.8 mph - 0.00 in Rain Light Rain
9:53 PM 78.1 °F - 75.0 °F 90% 29.93 in 10.0 mi East 5.8 mph - 0.00 in Rain Light Rain
10:29 PM 78.8 °F - 75.2 °F 89% 29.93 in 10.0 mi East 5.8 mph - 0.00 in   Overcast
10:53 PM 77.0 °F - 75.0 °F 94% 29.93 in 10.0 mi ESE 5.8 mph - 0.00 in   Overcast
11:06 PM 77.0 °F - 75.2 °F 94% 29.93 in 10.0 mi SE 5.8 mph - N/A   Overcast
11:13 PM 77.0 °F - 75.2 °F 94% 29.93 in 10.0 mi SE 4.6 mph - N/A   Mostly Cloudy